Weather History for Springfield, CO

Change the Weather History Date:

Friday, December 7, 2012

  Actual Average Record
Temperature  
Mean Temperature 40 °F -  
Max Temperature 57 °F 48 °F 72 °F (2008)
Min Temperature 23 °F 19 °F -5 °F (2005)
Degree Days  
Heating Degree Days 25 31  
Month to date heating degree days 128 214  
Since 1 July heating degree days 1104 1360  
Cooling Degree Days 0 0  
Month to date cooling degree days 0 0  
Year to date cooling degree days 1422 1028  
Moisture  
Dew Point 18 °F    
Average Humidity 46    
Maximum Humidity 68    
Minimum Humidity 24    
Precipitation  
Precipitation 0.00 in 0.02 in 0.03 in (1998)
Month to date precipitation 0.00 0.15  
Year to date precipitation 8.07 17.19  
Sea Level Pressure  
Sea Level Pressure 29.86 in    
Wind  
Wind Speed 7 mph (North)    
Max Wind Speed 18 mph    
Max Gust Speed 22 mph    
T = Trace of Precipitation, MM = Missing Value Source: NWS Daily Summary

Daily Weather History Graph

Daily Weather History Graph

Search for Another Location

Airport:

Trip Planner

Search our weather history database for the weather conditions in past years. The results will help you decide how hot, cold, wet, or windy it might be!

Date:

Astronomy

Dec. 07, 2012 Rise Set
Actual Time 6:51 AM MST 4:32 PM MST
Civil Twilight 6:22 AM MST 5:01 PM MST
Nautical Twilight 5:50 AM MST 5:34 PM MST
Astronomical Twilight 5:18 AM MST 6:05 PM MST
Moon 12:20 AM MST (12/7) 12:24 PM MST (12/7)
Length of Visible Light 10h 39m
Length of Day
9h 41m
Last Quarter, 38% of the Moon is Illuminated
Dec 7
Last Quarter
Dec 13
New
Dec 19
First Quarter
Dec 28
Full
Jan 4
Last Quarter

Hourly Weather History & Observations

Time (MST) Temp. Windchill Dew Point Humidity Pressure Visibility Wind Dir Wind Speed Gust Speed Precip Events Conditions
12:56 AM 27.0 °F 20.5 °F 14.0 °F 58% 29.88 in - West 5.8 mph - N/A   Unknown
1:56 AM 25.0 °F 16.3 °F 12.9 °F 60% 29.88 in - WSW 8.1 mph - N/A   Unknown
2:56 AM 25.0 °F 18.1 °F 12.9 °F 60% 29.86 in - SW 5.8 mph - N/A   Unknown
3:56 AM 26.1 °F 19.4 °F 12.9 °F 58% 29.85 in - SW 5.8 mph - N/A   Unknown
4:56 AM 26.1 °F 18.4 °F 14.0 °F 60% 29.85 in - WSW 6.9 mph - N/A   Unknown
5:56 AM 26.1 °F 17.6 °F 14.0 °F 60% 29.86 in - SSW 8.1 mph - N/A   Unknown
6:56 AM 24.1 °F 19.7 °F 12.9 °F 62% 29.86 in - WSW 3.5 mph - N/A   Unknown
7:56 AM 30.9 °F 26.2 °F 16.0 °F 54% 29.84 in - West 4.6 mph - N/A   Unknown
8:56 AM 39.0 °F 34.0 °F 18.0 °F 43% 29.83 in - WSW 6.9 mph - N/A   Unknown
9:56 AM 46.9 °F - 24.1 °F 41% 29.81 in - North 8.1 mph - N/A   Unknown
10:56 AM 48.9 °F - 25.0 °F 39% 29.80 in - North 6.9 mph - N/A   Unknown
11:56 AM 53.1 °F - 24.1 °F 32% 29.77 in - North 5.8 mph - N/A   Unknown
12:56 PM 57.0 °F - 23.0 °F 27% 29.75 in - North 9.2 mph 16.1 mph N/A   Unknown
1:56 PM 57.0 °F - 21.9 °F 26% 29.75 in - ENE 8.1 mph - N/A   Unknown
2:56 PM 54.0 °F - 21.0 °F 28% 29.78 in - NE 11.5 mph 21.9 mph N/A   Unknown
3:56 PM 50.0 °F - 21.9 °F 33% 29.81 in - NE 12.7 mph - N/A   Unknown
4:56 PM 39.9 °F 35.1 °F 21.0 °F 47% 29.87 in - East 6.9 mph - N/A   Unknown
5:56 PM 35.1 °F 31.0 °F 18.0 °F 50% 29.91 in - East 4.6 mph - N/A   Unknown
6:56 PM 34.0 °F 27.2 °F 19.0 °F 54% 29.94 in - East 8.1 mph - N/A   Unknown
7:56 PM 32.0 °F 27.5 °F 19.0 °F 59% 29.95 in - ENE 4.6 mph - N/A   Unknown
8:56 PM 28.0 °F 24.2 °F 18.0 °F 66% 29.96 in - North 3.5 mph - N/A   Unknown
9:56 PM 28.0 °F 22.8 °F 18.0 °F 66% 29.94 in - North 4.6 mph - N/A   Unknown
10:56 PM 26.1 °F 18.4 °F 17.1 °F 69% 29.95 in - North 6.9 mph - N/A   Unknown
11:56 PM 27.0 °F 21.6 °F 17.1 °F 66% 29.94 in - NE 4.6 mph - N/A   Unknown